This is the latest recevied weather packets stored in our database for station/object HG5PBP-13. If no packets are shown the sender has not sent any weather packets the latest 1 day(s).
| Time | Temp. | Humidity | Pressure | Rain* | Wind** | Luminosity | Snow |
|---|---|---|---|---|---|---|---|
| 1778006060 | 18.33° C | 4% | - | 0 mm | 1.79 m/s, 289° | - | - |
| 1778005759 | 18.33° C | 4% | - | 0 mm | 2.24 m/s, 325° | - | - |
| 1778005458 | 18.89° C | 4% | - | 0 mm | 0.89 m/s, 282° | - | - |
| 1778005159 | 18.89° C | 4% | - | 0 mm | 0.45 m/s, 258° | - | - |
| 1778004858 | 18.89° C | 4% | - | 0 mm | 1.34 m/s, 270° | - | - |
| 1778004558 | 18.89° C | 4% | - | 0 mm | 1.79 m/s, 221° | - | - |
| 1778004258 | 18.89° C | 4% | - | 0 mm | 0.89 m/s, 340° | - | - |
| 1778003958 | 18.89° C | 4% | - | 0 mm | 0.89 m/s, 271° | - | - |
| 1778003658 | 18.89° C | 4% | - | 0 mm | 1.34 m/s, 326° | - | - |
| 1778003358 | 18.89° C | 4% | - | 0 mm | 0.89 m/s, 280° | - | - |
| 1778003058 | 19.44° C | 4% | - | 0 mm | 2.68 m/s, 265° | - | - |
| 1778002758 | 19.44° C | 4% | - | 0 mm | 0.89 m/s, 231° | - | - |
| 1778002458 | 19.44° C | 4% | - | 0 mm | 0.89 m/s, 265° | - | - |
| 1778002158 | 19.44° C | 4% | - | 0 mm | 0.45 m/s, 273° | - | - |
| 1778001858 | 20° C | 4% | - | 0 mm | 2.24 m/s, 275° | - | - |
| 1778001558 | 20° C | 4% | - | 0 mm | 1.34 m/s, 214° | - | - |
| 1778001258 | 20° C | 4% | - | 0 mm | 1.34 m/s, 266° | - | - |
| 1778000958 | 20.56° C | 4% | - | 0 mm | 1.34 m/s, 249° | - | - |
| 1778000658 | 20.56° C | 4% | - | 0 mm | 1.79 m/s, 239° | - | - |
| 1778000358 | 20.56° C | 4% | - | 0 mm | 1.79 m/s, 232° | - | - |
| 1778000058 | 21.11° C | 3% | - | 0 mm | 3.13 m/s, 248° | - | - |
| 1777999758 | 21.11° C | 3% | - | 0 mm | 1.34 m/s, 259° | - | - |
| 1777999458 | 21.11° C | 3% | - | 0 mm | 3.13 m/s, 293° | - | - |
| 1777999158 | 21.67° C | 3% | - | 0 mm | 1.79 m/s, 292° | - | - |
| 1777998858 | 21.67° C | 3% | - | 0 mm | 1.34 m/s, 191° | - | - |
* Rain latest hour (hover to see other rain measurements)
** Current wind speed in m/s (hover to see current wind gust speed)